KK4XZ Weather Reports


Display with metric or nautical units.
time (UTC)temp
F
wind
direction
speed
MPH
gust
MPH
rain 1hr
in
rain 24hr
in
rain mn
in
humidity
%
barometer
mb
20260902115532 76 137 8.0 10.0 0.00 0.00 0.00 97 1018.4
20260902114528 75 138 8.0 10.0 0.00 0.00 0.00 97 1018.4
20260902113523 75 133 9.0 11.0 0.00 0.00 0.00 97 1018.3
20260902112518 75 133 9.0 11.0 0.00 0.00 0.00 97 1018.3
20260902111533 74 133 9.0 10.0 0.00 0.00 0.00 97 1018.3
20260902110528 74 129 8.0 11.0 0.00 0.00 0.00 97 1018.2
20260902105524 74 132 9.0 10.0 0.00 0.00 0.00 97 1018.1
20260902104519 74 136 9.0 11.0 0.00 0.00 0.00 97 1018.1
20260902103534 75 132 9.0 10.0 0.00 0.00 0.00 97 1018.0
20260902102529 75 132 9.0 10.0 0.00 0.00 0.00 97 1017.9
20260902101524 75 132 9.0 10.0 0.00 0.00 0.00 97 1017.7
20260902100520 75 135 9.0 11.0 0.00 0.00 0.00 97 1017.7
20260902095535 75 131 9.0 11.0 0.00 0.00 0.00 97 1017.7
20260902094530 75 127 8.0 10.0 0.00 0.00 0.00 97 1017.5
20260902093525 75 131 8.0 11.0 0.00 0.00 0.00 97 1017.6
20260902092520 75 136 9.0 11.0 0.00 0.00 0.00 97 1017.6
20260902091535 75 135 9.0 11.0 0.00 0.00 0.00 97 1017.5
20260902090531 75 129 7.0 10.0 0.00 0.00 0.00 97 1017.4
20260902085526 75 133 8.0 10.0 0.00 0.00 0.00 96 1017.4
20260902084521 75 141 9.0 10.0 0.00 0.00 0.00 96 1017.5
20260902083536 75 141 9.0 11.0 0.00 0.00 0.00 96 1017.4
20260902082531 76 138 8.0 10.0 0.00 0.00 0.00 96 1017.4
20260902081526 76 121 6.0 10.0 0.00 0.00 0.00 96 1017.3
20260902080521 76 139 9.0 11.0 0.00 0.00 0.00 96 1017.1
20260902075536 76 136 8.0 10.0 0.00 0.00 0.00 96 1017.2
20260902074531 76 134 8.0 9.0 0.00 0.00 0.00 96 1017.2
20260902073526 76 135 8.0 9.0 0.00 0.00 0.00 95 1017.2
20260902072522 76 133 8.0 9.0 0.00 0.00 0.00 95 1017.3
20260902071517 76 135 8.0 9.0 0.00 0.00 0.00 95 1017.3
20260902070533 76 133 8.0 9.0 0.00 0.00 0.00 95 1017.4
20260902065527 77 136 8.0 9.0 0.00 0.00 0.00 94 1017.5
20260902064523 77 136 8.0 9.0 0.00 0.00 0.00 94 1017.5
20260902063518 77 134 8.0 9.0 0.00 0.00 0.00 94 1017.5
20260902062534 77 133 8.0 9.0 0.00 0.00 0.00 93 1017.5
20260902061529 78 134 8.0 9.0 0.00 0.00 0.00 93 1017.6
20260902060524 78 134 8.0 9.0 0.00 0.00 0.00 93 1017.4
20260902055519 78 136 8.0 9.0 0.00 0.00 0.00 92 1017.6
20260902054535 78 134 8.0 9.0 0.00 0.00 0.00 91 1017.5
20260902053530 79 136 8.0 9.0 0.00 0.00 0.00 91 1017.5
20260902052525 79 136 8.0 9.0 0.00 0.00 0.00 90 1017.5
20260902051520 79 138 8.0 9.0 0.00 0.00 0.00 88 1017.4
20260902050536 80 139 8.0 10.0 0.00 0.00 0.00 88 1017.5
20260902045531 80 140 8.0 10.0 0.00 0.00 0.00 88 1017.4
20260902044527 80 138 8.0 9.0 0.00 0.00 0.00 88 1017.5
20260902043521 80 142 9.0 10.0 0.00 0.00 0.00 88 1017.3
20260902042517 80 141 8.0 10.0 0.00 0.00 0.00 89 1017.3
20260902041532 79 140 9.0 10.0 0.00 0.00 0.00 89 1017.2
20260902040527 79 138 8.0 9.0 0.00 0.00 0.00 89 1017.2
20260902035522 80 138 8.0 10.0 0.00 0.00 0.00 88 1017.2
20260902034518 80 139 8.0 9.0 0.00 0.00 0.00 88 1017.1
20260902033533 80 139 8.0 9.0 0.00 0.00 0.00 87 1017.0
20260902032528 80 139 8.0 10.0 0.00 0.00 0.00 87 1017.0
20260902031523 80 140 8.0 11.0 0.00 0.00 0.00 87 1017.1
20260902030519 80 143 8.0 12.0 0.00 0.00 0.00 86 1017.0
20260902025534 80 141 8.0 10.0 0.00 0.00 0.00 86 1017.0
20260902024529 80 141 8.0 11.0 0.00 0.00 0.00 85 1017.2
20260902023524 80 143 8.0 10.0 0.00 0.00 0.00 86 1017.2
20260902022519 81 141 8.0 9.0 0.00 0.00 0.00 85 1017.3
20260902021535 81 143 8.0 10.0 0.00 0.00 0.00 85 1017.3
20260902020530 81 142 8.0 10.0 0.00 0.00 0.00 85 1017.2
20260902015525 81 142 8.0 10.0 0.00 0.00 0.00 85 1017.3
20260902014520 81 142 8.0 10.0 0.00 0.00 0.00 84 1017.1
20260902013535 81 139 8.0 10.0 0.00 0.00 0.00 84 1017.1
20260902012531 80 141 8.0 10.0 0.00 0.00 0.00 84 1017.1
20260902011526 80 139 8.0 10.0 0.00 0.00 0.00 85 1017.1
20260902010521 80 141 8.0 9.0 0.00 0.00 0.00 85 1017.1
20260902005516 80 142 8.0 9.0 0.00 0.00 0.00 85 1017.1
20260902004532 80 140 9.0 10.0 0.00 0.00 0.00 86 1017.0
20260902003527 80 139 8.0 9.0 0.00 0.00 0.00 85 1017.1
20260902002522 80 139 8.0 9.0 0.00 0.00 0.00 84 1016.9
20260902001517 81 138 8.0 9.0 0.00 0.00 0.00 83 1016.8
20260902000533 81 141 8.0 9.0 0.00 0.00 0.00 82 1016.8
20260901235528 81 140 8.0 9.0 0.00 0.00 0.00 81 1016.8
20260901234523 82 142 8.0 10.0 0.00 0.00 0.00 80 1016.8
20260901233518 82 161 7.0 10.0 0.00 0.00 0.00 79 1016.9
20260901232533 82 189 5.0 10.0 0.00 0.00 0.00 78 1016.9
20260901231528 82 187 5.0 7.0 0.00 0.00 0.00 76 1017.0
20260901230523 83 187 6.0 8.0 0.00 0.00 0.00 75 1017.2
20260901225518 83 185 5.0 8.0 0.00 0.00 0.00 76 1017.2
20260901224533 83 184 5.0 6.0 0.00 0.00 0.00 75 1017.1
20260901223529 83 188 6.0 9.0 0.00 0.00 0.00 75 1017.1
20260901222524 83 185 5.0 8.0 0.00 0.00 0.00 76 1017.1
20260901221519 83 177 5.0 6.0 0.00 0.00 0.00 76 1017.1
20260901220534 83 190 5.0 8.0 0.00 0.00 0.00 75 1017.1
20260901215529 84 188 5.0 7.0 0.00 0.00 0.00 76 1017.0
20260901214525 84 193 6.0 10.0 0.00 0.00 0.00 75 1016.9
20260901213520 84 180 5.0 6.0 0.00 0.00 0.00 76 1016.8
20260901212535 84 188 5.0 8.0 0.00 0.00 0.00 78 1016.9
20260901211530 84 193 6.0 9.0 0.00 0.00 0.00 79 1017.0
20260901210525 85 119 4.0 6.0 0.00 0.00 0.00 78 1017.0
20260901205521 85 122 4.0 8.0 0.00 0.00 0.00 76 1017.1
20260901204516 86 215 3.0 5.0 0.00 0.00 0.00 76 1017.0
20260901203531 85 227 3.0 6.0 0.00 0.00 0.00 76 1017.0
20260901202527 86 218 2.0 6.0 0.00 0.00 0.00 77 1017.0
20260901201521 86 224 2.0 4.0 0.00 0.00 0.00 76 1017.0
20260901200516 86 206 2.0 5.0 0.00 0.00 0.00 76 1017.1
20260901195531 86 194 3.0 6.0 0.00 0.00 0.00 76 1017.1
20260901194527 86 221 3.0 8.0 0.00 0.00 0.00 77 1017.2
20260901193522 87 194 2.0 5.0 0.00 0.00 0.00 77 1017.4
20260901192517 87 214 3.0 6.0 0.00 0.00 0.00 75 1017.4
20260901191533 87 214 3.0 5.0 0.00 0.00 0.00 74 1017.5
20260901190528 87 199 3.0 6.0 0.00 0.00 0.00 72 1017.6
20260901185523 87 212 4.0 6.0 0.00 0.00 0.00 72 1017.7
20260901184518 87 222 3.0 6.0 0.00 0.00 0.00 73 1017.8
20260901183533 88 230 3.0 7.0 0.00 0.00 0.00 70 1017.8
20260901182528 88 189 2.0 4.0 0.00 0.00 0.00 71 1017.9
20260901181524 89 222 3.0 6.0 0.00 0.00 0.00 69 1017.9
20260901180520 90 206 2.0 5.0 0.00 0.00 0.00 69 1017.9
20260901175534 89 222 2.0 6.0 0.00 0.00 0.00 67 1017.9
20260901174529 89 219 2.0 6.0 0.00 0.00 0.00 68 1018.0
20260901173524 89 213 3.0 6.0 0.00 0.00 0.00 68 1018.0
20260901172520 90 229 3.0 6.0 0.00 0.00 0.00 66 1018.0
20260901171535 89 222 1.0 4.0 0.00 0.00 0.00 67 1018.0
20260901170531 89 238 3.0 5.0 0.00 0.00 0.00 68 1018.0
20260901165525 91 204 3.0 6.0 0.00 0.00 0.00 59 1018.2
20260901164521 91 0.0 0.0 0.00 0.00 0.00 63 1018.3
20260901163536 89 275 2.0 4.0 0.00 0.00 0.00 64 1018.4
20260901162532 88 242 1.0 4.0 0.00 0.00 0.00 66 1018.5
20260901161526 89 169 2.0 3.0 0.00 0.00 0.00 65 1018.6
20260901160522 88 30 1.0 3.0 0.00 0.00 0.00 66 1018.6
20260901155517 88 24 0.0 4.0 0.00 0.00 0.00 66 1018.8
20260901154532 89 313 1.0 2.0 0.00 0.00 0.00 68 1018.6
20260901153527 88 183 4.0 4.0 0.00 0.00 0.00 68 1018.6
20260901152523 88 176 3.0 5.0 0.00 0.00 0.00 68 1018.8
20260901151518 87 180 4.0 5.0 0.00 0.00 0.00 67 1018.7
20260901150533 87 185 4.0 5.0 0.00 0.00 0.00 67 1018.8
20260901145528 87 156 6.0 10.0 0.00 0.00 0.00 69 1018.9
20260901144523 86 135 7.0 9.0 0.00 0.00 0.00 71 1018.9
20260901143519 86 140 7.0 9.0 0.00 0.00 0.00 71 1019.0
20260901142534 85 136 7.0 9.0 0.00 0.00 0.00 74 1018.9
20260901141528 84 134 7.0 9.0 0.00 0.00 0.00 77 1018.9
20260901140524 83 131 7.0 9.0 0.00 0.00 0.00 79 1018.9
20260901135519 82 134 8.0 9.0 0.00 0.00 0.00 82 1018.9
20260901134534 81 134 7.0 10.0 0.00 0.00 0.00 84 1018.9
20260901133530 80 138 8.0 10.0 0.00 0.00 0.00 89 1019.0
20260901132525 79 132 7.0 9.0 0.00 0.00 0.00 92 1018.8
20260901131519 78 130 7.0 9.0 0.00 0.00 0.00 97 1018.8
20260901130535 77 135 8.0 9.0 0.00 0.00 0.00 97 1018.9
20260901125530 76 136 8.0 9.0 0.00 0.00 0.00 97 1018.9
20260901124525 76 136 8.0 9.0 0.00 0.00 0.00 97 1018.9
20260901123520 76 137 8.0 9.0 0.00 0.00 0.00 97 1018.9
20260901122536 75 137 8.0 9.0 0.00 0.00 0.00 97 1018.8
20260901121531 75 135 8.0 9.0 0.00 0.00 0.00 97 1018.7
20260901120526 74 136 9.0 10.0 0.00 0.00 0.00 97 1018.5